Vertical_Velocity
-1 1 1 0 2 -0 -1 0 1 1 3 4 7 6 3 6 2 0 0 -1 -2 -1 -0 1 1 0 1 1 0 -1 -0 -0 1 2 -1 -2 -2 -1 -0 1 -0 1 1
-2 -2 -0 -0 -1 0 1 -0 0 2 -0 -0 4 4 2 5 3 2 2 1 -2 -1 0 -3 -1 0 1 2 0 1 -1 -0 -1 -1 1 1 0 -2 -1 0 0 -1 -1
1 1 2 5 6 3 0 -3 -1 -0 -1 -2 2 0 1 9 5 5 1 2 2 2 6 -0 1 2 7 2 1 1 4 0 0 -1 -2 -1 1 2 -1 -1 -1 0 -1
-1 1 -1 -2 -0 4 3 6 2 1 1 2 2 4 3 0 -3 0 0 -2 3 -18 6 -4 1 -3 -3 3 -1 3 1 1 2 -0 1 0 -1 -1 -1 1 -0 -0 -0
-2 -2 0 1 1 1 1 -1 6 4 2 7 3 2 2 1 1 1 4 4 2 1 1 1 -0 -8 -5 -19 -6 -2 5 6 2 2 0 -0 1 -0 -0 -2 2 1 1
-4 -4 -3 0 -1 -0 2 -1 8 1 11 -4 3 6 5 4 -0 -3 1 1 2 2 -0 1 0 1 3 0 -0 3 1 1 -6 6 -1 1 -1 0 -0 -0 -3 1 1
-3 -1 -0 2 1 2 2 0 4 7 1 -19 35 2 5 7 4 4 -0 3 2 3 1 -1 0 -1 1 3 4 -1 -1 2 3 1 -1 2 4 2 -0 -2 -0 -2 -0
-3 -4 -3 -4 -0 1 3 -2 4 4 4 -3 31 -4 -5 4 11 3 4 1 1 1 1 1 0 1 2 0 1 4 -2 -1 2 1 -0 -3 -1 -5 3 1 -2 -2 -0
-3 -5 -4 -2 -4 -3 -2 4 -3 3 -1 1 -1 -4 15 -4 -6 8 9 4 -1 2 0 1 4 1 1 1 -4 -1 3 2 -1 -2 -0 -2 0 1 0 2 2 2 -1
-4 -6 -4 -4 -3 -2 -1 -1 -5 1 -4 1 -12 -19 -26 5 -13 -16 -4 -6 -1 5 0 1 1 3 3 -3 1 6 8 -4 1 3 3 1 -1 2 1 3 2 1 4
-1 -3 -4 -5 -6 -3 0 -4 -5 0 -1 -5 0 -2 2 8 -17 -7 -10 15 -11 20 -5 -3 -7 1 -4 -2 3 -10 -2 -13 -17 -8 -1 2 -1 1 3 3 5 1 -2
-1 -2 -1 -1 -1 -2 -2 -2 -4 -3 2 3 3 1 2 6 6 4 -6 -6 -5 18 3 -5 5 -2 2 -3 -4 2 1 2 4 3 -4 -6 3 -2 -2 1 3 4 1
-3 -4 -4 -3 -3 -3 -4 -4 -4 -7 -9 -10 -9 -7 -2 -1 -10 -7 -12 -3 -10 9 -2 6 -7 -4 0 4 -2 -2 1 -4 -3 -2 2 -3 7 0 6 1 3 3 1
-3 -3 -3 -1 -0 0 2 5 5 5 5 4 2 0 -1 -2 1 3 4 0 -1 5 1 4 5 4 -6 -7 -2 -5 3 1 5 -3 6 0 6 -5 -0 -3 -5 3 -0
-3 -4 -4 -4 -4 -4 -3 -2 -2 -1 1 4 6 4 2 1 -0 -3 -9 -12 -9 -16 -4 9 -0 12 1 -3 -10 4 3 4 -1 5 -1 5 -1 -4 5 0 -0 -6 3
-3 -1 -1 -1 -1 -1 -2 -2 -3 -2 -2 -3 -4 -5 -5 -3 -1 1 3 3 1 -3 -8 -8 2 -2 2 5 0 -1 3 10 3 3 0 5 14 -1 2 -3 4 -8 -5
1 1 1 0 0 1 0 0 1 1 -0 -1 -1 -1 -0 -0 -0 0 0 -1 -0 -1 -2 10 -0 -4 -0 -5 -1 -1 2 -11 3 9 8 6 6 14 6 -3 7 -1 -2
-2 -2 -1 -1 -1 -2 -2 -1 -2 -1 0 0 0 -1 -1 -1 -2 -2 -2 -1 0 -0 -3 -1 3 1 -1 -1 -3 -3 -2 -3 -3 0 -0 17 10 4 2 10 -5 7 -12
1 -0 -2 -2 -2 -2 -2 -2 -1 -1 0 -0 -1 -1 -1 -1 -1 0 1 1 1 -0 -2 -5 -1 -2 -2 -4 1 -1 -1 2 1 -9 -6 -2 13 4 11 2 -1 -1 23
-0 -0 -1 -0 1 1 1 0 -0 -1 -1 -2 -1 -1 -0 -0 -1 -0 -0 -1 0 0 -1 -3 -2 1 -4 2 -1 -6 7 1 3 3 1 7 -13 7 14 -7 5 13 -15
0 -1 0 0 -0 -1 -1 0 -0 1 1 0 -1 -1 0 -1 -1 -3 -2 -0 -2 -1 -2 -3 -2 -1 1 -3 -5 1 -5 -5 7 1 -0 7 5 -12 6 9 3 4 6
1 0 -3 -3 -3 -1 0 -1 -1 3 -1 -2 -1 -0 -2 -3 -1 -3 -3 -4 -4 -9 -4 -6 -4 -6 -0 -3 -2 -7 -6 -8 -9 15 -6 6 -5 -1 -15 4 12 8 2
-1 -2 -3 -2 -1 -0 -2 -1 -2 1 -1 -1 0 0 -1 -2 -3 -1 -1 -1 0 -2 -5 -8 -6 -4 -5 -2 -6 -4 -5 -6 -7 5 -3 -11 1 1 -1 -4 -14 6 10
-4 -3 -1 -1 -2 -3 -1 -1 -2 1 1 -1 0 -0 -1 0 -2 -2 -2 1 1 2 -1 -1 -4 -3 -3 -2 -4 -6 -5 -7 -5 -2 -2 -14 -4 -0 3 -2 -0 -12 -3
-1 -1 -2 -1 -2 -1 -5 -2 -3 -2 -0 -0 -0 -0 -1 -1 -0 -0 -1 -1 3 6 1 -1 -1 -2 -3 -2 -4 -7 -0 -7 -4 -5 3 -3 -10 -6 0 7 -3 1 -1
-1 -1 -2 -1 -1 -0 -0 -3 -3 -1 -0 -1 2 0 -1 -3 -2 -1 -5 -5 -2 -3 -3 3 10 8 2 -2 1 -1 -3 -8 -2 -11 7 -7 -4 -6 -12 10 1 0 -3
Height
3121 3121 3121 3122 3122 3123 3124 3125 3125 3126 3126 3126 3126 3126 3127 3127 3128 3129 3130 3130 3131 3131 3132 3133 3133 3133 3134 3134 3135 3134 3134 3134 3134 3134 3135 3135 3135 3136 3137 3138 3139 3141 3141
3112 3111 3111 3112 3113 3114 3115 3116 3117 3117 3118 3119 3119 3120 3121 3121 3122 3122 3123 3124 3124 3124 3125 3126 3127 3128 3128 3129 3129 3130 3130 3130 3130 3130 3130 3131 3131 3132 3133 3134 3135 3136 3137
3102 3101 3101 3101 3101 3102 3104 3106 3108 3109 3110 3111 3112 3113 3114 3115 3115 3116 3117 3118 3119 3118 3118 3119 3120 3121 3121 3122 3123 3124 3125 3125 3125 3125 3126 3126 3126 3127 3128 3129 3130 3132 3133
3095 3092 3091 3090 3090 3090 3092 3095 3097 3099 3101 3103 3104 3104 3106 3107 3109 3110 3111 3112 3112 3112 3111 3112 3112 3113 3114 3114 3115 3116 3118 3119 3119 3119 3120 3121 3121 3121 3122 3123 3124 3125 3127
3085 3083 3081 3080 3081 3082 3083 3085 3087 3089 3091 3093 3095 3096 3097 3099 3101 3102 3104 3106 3106 3106 3106 3106 3105 3106 3107 3106 3107 3108 3110 3110 3111 3112 3113 3114 3115 3115 3115 3116 3117 3119 3120
3079 3076 3074 3072 3071 3073 3073 3076 3078 3080 3082 3084 3086 3087 3089 3091 3092 3095 3097 3097 3098 3098 3099 3099 3099 3100 3100 3100 3101 3102 3103 3102 3104 3104 3105 3107 3107 3108 3108 3109 3110 3111 3113
3072 3069 3066 3064 3064 3064 3065 3068 3071 3071 3075 3073 3072 3076 3078 3080 3082 3084 3085 3087 3089 3090 3089 3089 3088 3089 3089 3090 3091 3091 3092 3093 3094 3095 3096 3097 3098 3099 3100 3101 3103 3103 3105
3068 3064 3062 3060 3058 3058 3058 3059 3062 3065 3066 3066 3062 3063 3066 3071 3071 3074 3075 3076 3078 3079 3079 3079 3079 3079 3078 3078 3079 3080 3079 3080 3082 3083 3085 3086 3088 3089 3090 3091 3093 3094 3096
3064 3061 3058 3056 3056 3055 3054 3055 3055 3056 3059 3057 3058 3059 3057 3059 3059 3060 3063 3065 3067 3069 3068 3068 3069 3068 3066 3065 3065 3065 3066 3067 3068 3069 3071 3073 3075 3077 3079 3080 3082 3084 3087
3061 3058 3056 3055 3053 3051 3051 3052 3051 3051 3052 3053 3051 3050 3052 3052 3052 3052 3054 3055 3057 3059 3057 3055 3054 3054 3053 3052 3051 3051 3052 3053 3055 3055 3056 3059 3061 3063 3066 3068 3069 3072 3074
3059 3056 3054 3052 3051 3049 3048 3047 3047 3048 3048 3048 3048 3047 3046 3041 3043 3042 3038 3042 3047 3048 3045 3042 3039 3038 3037 3037 3036 3032 3030 3030 3033 3039 3042 3045 3046 3048 3051 3054 3056 3059 3062
3057 3055 3052 3049 3047 3046 3044 3043 3042 3043 3042 3042 3042 3040 3037 3036 3036 3031 3029 3027 3027 3033 3034 3031 3028 3024 3024 3023 3023 3023 3021 3020 3022 3025 3026 3028 3032 3033 3036 3039 3042 3045 3049
3057 3053 3050 3047 3045 3043 3041 3039 3038 3038 3037 3036 3035 3034 3032 3030 3028 3027 3023 3018 3014 3014 3017 3022 3020 3014 3013 3011 3010 3009 3008 3008 3009 3010 3013 3014 3017 3019 3021 3024 3027 3031 3034
3054 3051 3048 3045 3043 3040 3038 3036 3034 3032 3031 3029 3028 3026 3023 3021 3018 3015 3014 3011 3009 3007 3006 3007 3008 3005 3001 2998 2996 2994 2994 2992 2992 2996 2999 3001 3003 3004 3008 3010 3013 3016 3020
3053 3050 3047 3044 3041 3038 3035 3033 3031 3028 3026 3024 3022 3020 3019 3017 3016 3014 3011 3007 3000 2994 2995 3001 2993 2994 2989 2987 2986 2984 2982 2980 2980 2980 2983 2986 2988 2989 2992 2995 2999 3003 3007
3051 3048 3044 3041 3038 3034 3031 3028 3024 3021 3018 3015 3013 3010 3007 3005 3002 3000 2998 2995 2991 2984 2975 2985 2985 2980 2979 2976 2974 2972 2970 2968 2968 2967 2968 2969 2971 2974 2977 2980 2983 2988 2992
3047 3045 3043 3040 3036 3033 3029 3025 3021 3018 3014 3010 3006 3003 2999 2996 2993 2990 2988 2985 2983 2977 2970 2972 2972 2972 2968 2964 2962 2959 2957 2957 2957 2955 2951 2951 2955 2956 2960 2965 2969 2974 2977
3042 3039 3036 3032 3028 3025 3021 3017 3013 3009 3005 3001 2997 2994 2991 2988 2985 2982 2980 2977 2974 2970 2964 2959 2963 2961 2958 2953 2951 2948 2946 2944 2942 2940 2943 2939 2941 2942 2946 2949 2954 2959 2962
3038 3035 3032 3028 3024 3019 3014 3010 3006 3002 2998 2994 2990 2987 2984 2981 2979 2975 2972 2969 2966 2962 2958 2952 2950 2951 2948 2944 2941 2938 2936 2935 2932 2929 2929 2929 2931 2928 2931 2935 2939 2944 2941
3033 3030 3026 3021 3017 3013 3008 3004 2999 2995 2991 2987 2983 2979 2976 2973 2970 2967 2964 2960 2957 2954 2950 2946 2942 2941 2939 2936 2931 2928 2928 2924 2925 2920 2918 2917 2920 2919 2919 2921 2926 2928 2932
3027 3024 3020 3016 3011 3006 3001 2996 2992 2988 2984 2980 2976 2972 2968 2964 2961 2958 2955 2953 2949 2946 2943 2939 2935 2932 2929 2927 2923 2919 2915 2914 2913 2911 2907 2908 2907 2910 2911 2910 2911 2915 2919
3021 3018 3014 3009 3004 2999 2994 2989 2984 2981 2976 2972 2969 2965 2961 2958 2955 2951 2948 2944 2941 2937 2934 2930 2927 2923 2919 2915 2912 2908 2904 2902 2901 2903 2895 2900 2896 2898 2899 2901 2902 2904 2907
3015 3011 3007 3002 2997 2992 2987 2982 2977 2973 2969 2965 2961 2958 2955 2951 2947 2944 2940 2936 2932 2928 2923 2919 2916 2913 2909 2905 2900 2897 2894 2890 2889 2892 2882 2885 2889 2888 2889 2890 2889 2893 2897
3009 3005 3001 2996 2990 2985 2979 2974 2969 2965 2961 2957 2954 2951 2947 2944 2939 2935 2931 2927 2924 2921 2916 2911 2907 2903 2899 2894 2890 2885 2882 2879 2877 2879 2874 2867 2876 2875 2880 2880 2881 2883 2886
3002 2999 2994 2989 2983 2977 2972 2966 2962 2958 2954 2951 2948 2944 2939 2936 2931 2926 2921 2917 2915 2912 2907 2903 2898 2893 2889 2884 2880 2874 2871 2867 2866 2865 2867 2856 2861 2860 2867 2871 2869 2872 2876
2996 2992 2987 2982 2976 2971 2965 2960 2955 2951 2947 2945 2942 2937 2931 2927 2922 2918 2913 2909 2905 2901 2897 2895 2892 2886 2881 2876 2872 2866 2860 2856 2854 2852 2857 2849 2847 2847 2849 2858 2859 2861 2864